This is the latest recevied weather packets stored in our database for station/object KC7UNY-13. If no packets are shown the sender has not sent any weather packets the latest 10 day(s).
| Time | Temp. | Humidity | Pressure | Rain* | Wind** | Luminosity | Snow |
|---|---|---|---|---|---|---|---|
| 1777169332 | 26.11° C | 26% | 1006.6 hPa | 0 mm | - | 2 W/m² | - |
| 1777169027 | 26.11° C | 26% | 1006.7 hPa | 0 mm | - | 3 W/m² | - |
| 1777168723 | 26.67° C | 25% | 1006.8 hPa | 0 mm | - | 5 W/m² | - |
| 1777168419 | 26.67° C | 25% | 1006.7 hPa | 0 mm | - | 7 W/m² | - |
| 1777168117 | 26.67° C | 25% | 1006.7 hPa | 0 mm | - | 10 W/m² | - |
| 1777167814 | 27.22° C | 25% | 1006.7 hPa | 0 mm | - | 14 W/m² | - |
| 1777167510 | 27.22° C | 24% | 1006.8 hPa | 0 mm | - | 20 W/m² | - |
| 1777167205 | 27.22° C | 25% | 1006.7 hPa | 0 mm | - | 24 W/m² | - |
| 1777166901 | 27.78° C | 24% | 1006.9 hPa | 0 mm | - | 28 W/m² | - |
| 1777166596 | 27.78° C | 24% | 1006.8 hPa | 0 mm | - | 40 W/m² | - |
| 1777166292 | 27.78° C | 24% | 1006.8 hPa | 0 mm | - | 55 W/m² | - |
| 1777165988 | 27.78° C | 24% | 1006.9 hPa | 0 mm | - | 61 W/m² | - |
| 1777165687 | 27.78° C | 24% | 1006.9 hPa | 0 mm | - | 49 W/m² | - |
| 1777165383 | 27.78° C | 24% | 1007 hPa | 0 mm | - | 47 W/m² | - |
| 1777165079 | 28.33° C | 24% | 1006.9 hPa | 0 mm | - | 52 W/m² | - |
| 1777164778 | 29.44° C | 23% | 1006.8 hPa | 0 mm | - | 56 W/m² | - |
| 1777164476 | 29.44° C | 23% | 1007 hPa | 0 mm | - | 119 W/m² | - |
| 1777164171 | 29.44° C | 22% | 1007 hPa | 0 mm | - | 133 W/m² | - |
| 1777163867 | 27.78° C | 24% | 1007.3 hPa | 0 mm | - | 153 W/m² | - |
| 1777163561 | 28.33° C | 23% | 1007 hPa | 0 mm | - | 66 W/m² | - |
| 1777163258 | 28.89° C | 23% | 1007.3 hPa | 0 mm | - | 96 W/m² | - |
| 1777162954 | 28.89° C | 23% | 1007 hPa | 0 mm | - | 132 W/m² | - |
| 1777162648 | 28.89° C | 23% | 1007.1 hPa | 0 mm | - | 71 W/m² | - |
| 1777162348 | 29.44° C | 23% | 1007 hPa | 0 mm | - | 187 W/m² | - |
| 1777162043 | 29.44° C | 23% | 1007.2 hPa | 0 mm | - | 189 W/m² | - |
* Rain latest hour (hover to see other rain measurements)
** Current wind speed in m/s (hover to see current wind gust speed)